Location: Poigny-la-Forêt
(48.6876°N, 1.7701°E)
Time: 01:40:01
(UTC+02:00)

Envisat - Pass Details

Date: 31 March 2019
Orbit: 764 x 766 km, 98.2° (Epoch: 25 April)

Event Time Altitude Azimuth Distance (km) Brightness Sun altitude
Rises 21:45:04 0° 211° (SSW) 3,222 6.3 -14.0°
Reaches altitude 10° 21:48:10 10° 231° (SW) 2,302 5.8 -14.5°
Maximum altitude 21:51:26 17° 272° (W) 1,868 6.0 -15.0°
Drops below altitude 10° 21:54:42 10° 312° (NW) 2,313 6.7 -15.5°
Sets 21:57:51 0° 332° (NNW) 3,244 7.2 -16.0°
